Weather History for New Iberia, LA

Change the Weather History Date:

Monday, September 30, 2013

  Actual Average Record
Temperature  
Mean Temperature 80 °F 75 °F  
Max Temperature 86 °F 85 °F 94 °F (1998)
Min Temperature 74 °F 65 °F 47 °F (1967)
Degree Days  
Heating Degree Days 0 0  
Month to date heating degree days 0 0  
Since 1 July heating degree days 0 1  
Cooling Degree Days 15 10  
Month to date cooling degree days 558 413  
Year to date cooling degree days 2878 2556  
Growing Degree Days 30 (Base 50)    
Moisture  
Dew Point 71 °F    
Average Humidity 74    
Maximum Humidity 87    
Minimum Humidity 61    
Precipitation  
Precipitation 0.01 in 0.19 in 2.16 in (1985)
Month to date precipitation 4.02 4.63  
Year to date precipitation 57.09 45.48  
Sea Level Pressure  
Sea Level Pressure 29.92 in    
Wind  
Wind Speed 5 mph (SE)    
Max Wind Speed 17 mph    
Max Gust Speed 22 mph    
Visibility 10 miles    
Events Rain    
T = Trace of Precipitation, MM = Missing Value Source: NWS Daily Summary

Daily Weather History Graph

Daily Weather History Graph

Search for Another Location

Airport:

Trip Planner

Search our weather history database for the weather conditions in past years. The results will help you decide how hot, cold, wet, or windy it might be!

Date:

Astronomy

Sep. 30, 2013 Rise Set
Actual Time 7:00 AM CDT 6:53 PM CDT
Civil Twilight 6:36 AM CDT 7:17 PM CDT
Nautical Twilight 6:08 AM CDT 7:45 PM CDT
Astronomical Twilight 5:41 AM CDT 8:13 PM CDT
Moon 2:54 AM CDT (9/30) 4:10 PM CDT (9/30)
Length of Visible Light 12h 41m
Length of Day
11h 53m
Waning Crescent, 19% of the Moon is Illuminated
Sep 30
Waning Crescent
Oct 4
New
Oct 11
First Quarter
Oct 18
Full
Oct 26
Last Quarter

Hourly Weather History & Observations

Time (CDT) Temp. Heat Index Dew Point Humidity Pressure Visibility Wind Dir Wind Speed Gust Speed Precip Events Conditions
12:53 AM 75.0 °F - 68.0 °F 79% 29.94 in 10.0 mi ESE 4.6 mph - N/A   Clear
1:53 AM 75.0 °F - 68.0 °F 79% 29.93 in 10.0 mi SSE 3.5 mph - N/A   Clear
2:53 AM 75.9 °F - 68.0 °F 76% 29.91 in 10.0 mi Calm Calm - N/A   Clear
3:53 AM 75.0 °F - 69.1 °F 82% 29.91 in 8.0 mi SE 3.5 mph - 0.00 in Rain Rain
4:53 AM 75.0 °F - 71.1 °F 87% 29.91 in 10.0 mi Calm Calm - 0.01 in   Mostly Cloudy
5:53 AM 75.9 °F - 70.0 °F 82% 29.92 in 10.0 mi East 4.6 mph - 0.00 in   Scattered Clouds
6:53 AM 75.9 °F - 71.1 °F 85% 29.93 in 10.0 mi Calm Calm - N/A   Partly Cloudy
7:53 AM 75.9 °F - 72.0 °F 87% 29.93 in 8.0 mi East 3.5 mph - N/A   Partly Cloudy
8:53 AM 80.1 °F 84.2 °F 73.0 °F 79% 29.93 in 10.0 mi East 5.8 mph - N/A   Mostly Cloudy
9:53 AM 84.0 °F 91.2 °F 73.9 °F 72% 29.94 in 10.0 mi SSE 9.2 mph - N/A   Mostly Cloudy
10:53 AM 84.9 °F 91.4 °F 73.0 °F 67% 29.93 in 10.0 mi South 9.2 mph - N/A   Mostly Cloudy
11:53 AM 84.0 °F 89.6 °F 72.0 °F 67% 29.94 in 10.0 mi South 12.7 mph - N/A   Scattered Clouds
12:53 PM 80.1 °F 83.6 °F 71.1 °F 74% 29.94 in 10.0 mi SW 8.1 mph - N/A   Mostly Cloudy
1:53 PM 78.1 °F - 72.0 °F 81% 29.92 in 10.0 mi West 3.5 mph - 0.00 in Rain Light Rain
2:53 PM 82.0 °F 86.3 °F 71.1 °F 69% 29.91 in 10.0 mi Calm Calm - 0.00 in   Clear
3:53 PM 84.0 °F 88.4 °F 70.0 °F 63% 29.90 in 10.0 mi South 5.8 mph - N/A   Scattered Clouds
4:53 PM 84.0 °F 89.6 °F 72.0 °F 67% 29.88 in 10.0 mi South 9.2 mph - N/A   Clear
5:53 PM 86.0 °F 92.2 °F 72.0 °F 63% 29.88 in 10.0 mi SSE 8.1 mph - 0.00 in   Partly Cloudy
6:14 PM 84.2 °F 89.6 °F 71.6 °F 66% 29.90 in 10.0 mi SSE 6.9 mph - N/A   Mostly Cloudy
6:26 PM 82.4 °F 88.2 °F 73.4 °F 74% 29.90 in 10.0 mi East 4.6 mph - N/A   Mostly Cloudy
6:53 PM 82.0 °F 87.4 °F 73.0 °F 74% 29.91 in 10.0 mi East 8.1 mph - N/A   Mostly Cloudy
7:53 PM 78.1 °F - 72.0 °F 81% 29.91 in 10.0 mi East 6.9 mph - N/A   Scattered Clouds
8:53 PM 77.0 °F - 72.0 °F 84% 29.92 in 10.0 mi East 5.8 mph - N/A   Clear
9:42 PM 77.0 °F - 71.6 °F 83% 29.94 in 10.0 mi ENE 3.5 mph - N/A   Mostly Cloudy
9:53 PM 77.0 °F - 72.0 °F 84% 29.94 in 10.0 mi East 4.6 mph - N/A   Scattered Clouds
10:53 PM 75.0 °F - 71.1 °F 87% 29.94 in 10.0 mi East 6.9 mph - N/A   Clear
11:53 PM 75.9 °F - 72.0 °F 87% 29.94 in 10.0 mi ESE 5.8 mph - N/A   Scattered Clouds